Regional Weather Roundup
Issued by NWS

Home | Current Version | Previous Version | Graphics & Text | Print | Product List | Glossary On
Versions: 1 2 3 4 5 6 7 8 9 10 11 12 13 14 15 16 17 18 19 20 21 22 23 24 25 26 27 28 29 30 31 32 33 34 35 36 37 38 39 40 41 42 43 44 45 46 47 48 49 50
000
ASUS43 KLOT 192121
RWRIL

ILLINOIS REGIONAL WEATHER ROUNDUP
NATIONAL WEATHER SERVICE CHICAGO/ROMEOVILLE IL
400 PM CDT SUN APR 19 2015

NOTE: "FAIR" INDICATES FEW OR NO CLOUDS BELOW 12,000 FEET WITH NO
SIGNIFICANT WEATHER AND/OR OBSTRUCTIONS TO VISIBILITY.

* THESE STATIONS ARE NOT UNDER NWS QUALITY CONTROL. THEY ALSO MAY NOT
  REPORT WEATHER SUCH AS PRECIPITATION OR FOG.

ILZ001-002-007-009-015-016-024-192200-
NORTHWEST ILLINOIS

CITY           SKY/WX    TMP DP  RH WIND       PRES   REMARKS
MOLINE         NOT AVBL
STERLING*      CLOUDY    57  52  82 SE3       29.52F
SAVANNA*       CLOUDY    71  42  35 SE18      29.51F
$$

ILZ003-004-008-010-011-017-018-192200-
NORTH CENTRAL ILLINOIS

CITY           SKY/WX    TMP DP  RH WIND       PRES   REMARKS
ROCKFORD       CLOUDY    70  42  36 E10       29.53F
FREEPORT*      CLOUDY    67  44  43 SE12      29.54F
ROCHELLE*      CLOUDY    67  47  48 S12       29.54F
DE KALB*       CLOUDY    66  45  47 S8        29.53F
PERU*          DRIZZLE   60  53  78 E5        29.52F
$$

ILZ005-006-012>014-019>023-192200-
NORTHEAST ILLINOIS

CITY           SKY/WX    TMP DP  RH WIND       PRES   REMARKS
CHICAGO-OHARE  LGT RAIN  59  39  47 E10       29.55F
CHICAGO-MIDWAY LGT RAIN  59  48  67 E8        29.54F
AURORA         LGT RAIN  63  49  60 SE10      29.53F
LANSING*       LGT RAIN  57  50  77 E9G16     29.56F
JOLIET*        RAIN      60  54  79 NE3       29.52F
WAUKEGAN       CLOUDY    54  35  48 NE9       29.57F
DUPAGE AIRPORT CLOUDY    64  41  42 NE13      29.53F
KANKAKEE*      LGT RAIN  54  52  94 E10G17    29.53F
WHEELING       CLOUDY    54  35  48 NE8       29.58F
MORRIS*        RAIN      60  53  78 CALM      29.51F
ROMEOVILLE*    LGT RAIN  60  51  72 E8        29.53F
NORTHERLY ISL    N/A     51  42  71 N6          N/A
$$

LMZ740>746-192200-
SOUTHERN LAKE MICHIGAN

STATION/POSITION SKY/WX   TEMP    WIND        PRES    VSBY  WAVE
                          AIR SEA DIR/SP/G                  HT/PER
                          (F)     (DEG/KT/KT) (MB)    (MI)  (FT/S)
HARRISON CRIB              45     360/  8/  9   N/A
BURNHAM HARBOR             51      10/  6/  9   N/A
CALUMET HARBOR             50      20/  4/  6   N/A
BURNS HARBOR               61     110/ 12/ 21 1002.4F
MICHIGAN CITY              56      60/ 12/ 15   N/A
MICHIGAN CITY 6N           51 44  100/  8/ 12   N/A           1/ 5
$$

ILZ025>027-034>036-040-047-049-050-058-095>099-192200-
WEST-CENTRAL ILLINOIS

CITY           SKY/WX    TMP DP  RH WIND       PRES   REMARKS
QUINCY         LGT RAIN  65  60  84 SW8       29.52F
GALESBURG*     RAIN      59  55  84 E7        29.52F
MACOMB*        LGT RAIN  60  58  94 SE3       29.54F
JACKSONVILLE*  HVY RAIN  60  58  94 CALM      29.51F
PITTSFIELD*    RAIN      61  57  89 CALM      29.53F
$$

ILZ028>032-037-038-041>044-048-051>054-059>061-192200-
CENTRAL ILLINOIS

CITY           SKY/WX    TMP DP  RH WIND       PRES   REMARKS
PONTIAC        LGT RAIN  57  55  94 E12       29.52F
BLOOMINGTON    LGT RAIN  56  56 100 E16       29.51F FOG
DECATUR        CLOUDY    58  56  93 NE13      29.47F FOG
PEORIA         LGT RAIN  61  55  81 NE9       29.50F
LACON*         LGT RAIN  58  53  85 NE6       29.50F
LINCOLN*       RAIN      59  57  94 N6        29.47F
SPRINGFIELD    RAIN      59  57  93 N6        29.49F FOG
TAYLORVILLE    DRIZZLE   57  55  94 N5        29.47F
$$

ILZ033-039-045-046-055>057-062-063-192200-
EAST-CENTRAL ILLINOIS

CITY           SKY/WX    TMP DP  RH WIND       PRES   REMARKS
CHAMPAIGN      LGT RAIN  57  56  96 NE12      29.45F VSB 1
DANVILLE*      LGT RAIN  57  56  97 E8        29.45F
RANTOUL*       DRIZZLE   56  55  96 NE12      29.47F
MATTOON        RAIN      60  60 100 SE5       29.44F FOG
PARIS*         LGT RAIN  60  59  99 E5        29.46F
$$

ILZ079-100>102-192200-
SOUTHWEST ILLINOIS

CITY           SKY/WX    TMP DP  RH WIND       PRES   REMARKS
BELLEVILLE     LGT RAIN  63  63 100 W7        29.49F FOG
CAHOKIA*       LGT RAIN  63  59  87 NW16      29.51F FOG
SPARTA*        HVY RAIN  61  60  97 W5        29.52S
$$

ILZ064>066-069>071-074>076-080>082-084>086-088>090-092>094-192200-
SOUTH-CENTRAL ILLINOIS

CITY           SKY/WX    TMP DP  RH WIND       PRES   REMARKS
CARBONDALE     LGT RAIN  63  60  90 W5        29.50R
CAIRO*         CLOUDY    68  62  78 W17G25    29.52R
EFFINGHAM*     DRIZZLE   61  59  92 SW6       29.46F
MARION         LGT RAIN  64  63  94 W17       29.50R
MT. VERNON     CLOUDY    61  55  82 W5        29.48S
CENTRALIA*     RAIN      59  57  92 W7        29.48F
SALEM*         DRIZZLE   62  59  91 W9        29.47F
METROPOLIS*    LGT RAIN  67  67 100 W14G26    29.48S
$$

ILZ067-068-072-073-078-083-087-091-192200-
SOUTHEAST ILLINOIS

CITY           SKY/WX    TMP DP  RH WIND       PRES   REMARKS
LAWRENCEVILLE  LGT RAIN  65  64  97 S13       29.45F
FLORA*         CLOUDY    62  61  97 W10       29.46F FOG
FAIRFIELD*     CLOUDY    64  63  97 W6        29.44F FOG
HARRISBURG*    HVY RAIN  67  66  96 W8        29.46F
ROBINSON*      LGT RAIN  63  62  97 S7        29.50F
CARMI*         HVY RAIN  66  61  84 SW6       29.45F
$$

ABBREVIATIONS USED IN REMARKS
   TC - TEMPERATURE IN CELSIUS
  WCI - WIND CHILL INDEX
   HX - HEAT INDEX
  VSB - VISIBILITY
$$




USA.gov is the U.S. government's official web portal to all federal, state and local government web resources and services.